ボアッティーニ彗星

387P/Boattini (2019)

English version
Home page
Updated on March 6, 2020

---------------------------------------------------------------------

・ プロフィール

符号 387P/2019 R1
検出日 2019年9月2日
検出光度 15.8等
検出者 G. Borisov (MARGO observatory near Nauchnij, Crimea)

・ 写真集

・ 軌道要素

Epoch 2019 Aug. 25.0 TT = JDT 2458720.5
T 2019 Sept. 6.17997 TT                                 Williams
q   1.2678520            (2000.0)            P               Q
n   0.09365049     Peri.  162.80609     +0.46370002     -0.87279881
a   4.8024482      Node   259.34049     +0.79356785     +0.48560040
e   0.7359988      Incl.    8.91710     +0.39399538     +0.04913752
P  10.5
From 265 observations 2008 Dec. 22-2019 Nov. 3, mean residual 0".6.

・ 星図

・ 光度変化

        m1 = 14.0 + 5 logΔ + 15.0 log r

---------------------------------------------------------------------

軌道要素はM.P.E.C. 2019-V116に掲載されたものです。
星図はステラナビゲータ Ver.10 (アストロアーツ) で作成したものです。
光度グラフはComet for Windowsで作成したものです。

---------------------------------------------------------------------

Copyright(C) Seiichi Yoshida (comet@aerith.net). All rights reserved.